Location: Unspecified
(41.5000°N, 0.0000°E)
Time: 05:40:52
(UTC+00:00)

Courier 1B Rocket - Pass Details

Date: 30 June 2019
Orbit: 921 x 1202 km, 28.2° (Epoch: 17 July)

Event Time Altitude Azimuth Distance (km) Brightness Sun altitude
Rises 03:07:46 0° 249° (WSW) 4,027 - -12.5°
Reaches altitude 10° 03:11:04 10° 239° (WSW) 3,029 - -12.1°
Exits shadow 03:12:25 15° 232° (SW) 2,661 6.6 -11.9°
Maximum altitude 03:17:11 28° 183° (S) 1,927 6.2 -11.3°
Drops below altitude 10° 03:22:59 10° 128° (SE) 2,859 7.6 -10.5°
Sets 03:26:00 0° 117° (ESE) 3,764 8.3 -10.1°
